This is the latest recevied weather packets stored in our database for station/object DF1GD-10. If no packets are shown the sender has not sent any weather packets the latest 10 day(s).
| Time | Temp. | Humidity | Pressure | Rain* | Wind** | Luminosity | Snow |
|---|---|---|---|---|---|---|---|
| 1788661739 | 12.78° C | 53% | 1025 hPa | - | - | - | - |
| 1788660839 | 13.33° C | 51% | 1025 hPa | - | - | - | - |
| 1788659939 | 12.78° C | 52% | 1025.2 hPa | - | - | - | - |
| 1788659039 | 12.78° C | 54% | 1025.1 hPa | - | - | - | - |
| 1788658138 | 13.33° C | 54% | 1025 hPa | - | - | - | - |
| 1788657238 | 13.33° C | 53% | 1025 hPa | - | - | - | - |
| 1788656338 | 13.89° C | 51% | 1025.1 hPa | - | - | - | - |
| 1788655438 | 13.89° C | 51% | 1025.1 hPa | - | - | - | - |
| 1788654555 | 14.44° C | 51% | 1025.1 hPa | - | - | - | - |
| 1788653638 | 14.44° C | 49% | 1025.1 hPa | - | - | - | - |
| 1788652737 | 14.44° C | 49% | 1024.9 hPa | - | - | - | - |
| 1788651837 | 15° C | 48% | 1025 hPa | - | - | - | - |
| 1788650937 | 15° C | 47% | 1025 hPa | - | - | - | - |
| 1788650037 | 15° C | 48% | 1024.9 hPa | - | - | - | - |
| 1788649137 | 15.56° C | 46% | 1024.9 hPa | - | - | - | - |
| 1788648236 | 15.56° C | 45% | 1025 hPa | - | - | - | - |
| 1788647336 | 16.67° C | 44% | 1025 hPa | - | - | - | - |
| 1788646436 | 17.22° C | 40% | 1024.9 hPa | - | - | - | - |
| 1788645535 | 16.67° C | 40% | 1024.7 hPa | - | - | - | - |
| 1788644635 | 17.22° C | 42% | 1024.7 hPa | - | - | - | - |
| 1788643735 | 17.22° C | 41% | 1024.7 hPa | - | - | - | - |
| 1788642835 | 18.33° C | 37% | 1024.6 hPa | - | - | - | - |
| 1788641935 | 18.33° C | 35% | 1024.4 hPa | - | - | - | - |
| 1788641035 | 18.89° C | 34% | 1024.3 hPa | - | - | - | - |
| 1788640135 | 18.89° C | 31% | 1024.3 hPa | - | - | - | - |
* Rain since midnight (hover to see other rain measurements)
** Current wind speed in m/s (hover to see current wind gust speed)